Weather History for HKNW - August, 2014

Change the Weather History Date:

Wednesday, August 13, 2014

  Actual Average Record
Temperature  
Mean Temperature 65 °F -  
Max Temperature 77 °F 68 °F 78 °F (2012)
Min Temperature 53 °F 55 °F 48 °F (2005)
Growing Degree Days 15 (Base 50)    
Moisture  
Dew Point 54 °F    
Average Humidity 72    
Maximum Humidity 100    
Minimum Humidity 41    
Precipitation  
Precipitation 0.00 in - - ()
Sea Level Pressure  
Sea Level Pressure 30.17 in    
Wind  
Wind Speed 4 mph ()    
Max Wind Speed 18 mph    
Max Gust Speed -    
Visibility 6.2 miles    
Events      
Averages and records for this station are not official NWS values.
T = Trace of Precipitation, MM = Missing Value Source: Averaged Metar Reports

Daily Weather History Graph

Daily Weather History Graph

Search for Another Location

Airport or City:

Trip Planner

Search our weather history database for the weather conditions in past years. The results will help you decide how hot, cold, wet, or windy it might be!

Date:

Astronomy

Aug. 13, 2014 Rise Set
Actual Time 6:35 AM EAT 6:39 PM EAT
Civil Twilight 6:14 AM EAT 7:01 PM EAT
Nautical Twilight 5:49 AM EAT 7:25 PM EAT
Astronomical Twilight 5:24 AM EAT 7:50 PM EAT
Moon 9:13 PM EAT (8/13) 8:45 AM EAT (8/13)
Length of Visible Light 12h 46m
Length of Day
12h 04m
Waning Gibbous, 90% of the Moon is Illuminated
Aug 13
Waning Gibbous
Aug 17
Last Quarter
Aug 25
New
Sep 2
First Quarter
Sep 9
Full

Hourly Weather History & Observations

Time (EAT) Temp. Dew Point Humidity Pressure Visibility Wind Dir Wind Speed Gust Speed Precip Events Conditions
12:00 AM 62.6 °F 55.4 °F 77% 30.18 in 6.2 mi Calm Calm - N/A   Mostly Cloudy
1:00 AM 60.8 °F 55.4 °F 82% 30.18 in 6.2 mi Calm Calm - N/A   Mostly Cloudy
2:00 AM 60.8 °F 55.4 °F 82% 30.15 in 6.2 mi ESE 6.9 mph - N/A   Mostly Cloudy
3:00 AM 59.0 °F 55.4 °F 88% 30.15 in 6.2 mi Calm Calm - N/A   Mostly Cloudy
4:00 AM 59.0 °F 55.4 °F 88% 30.15 in 6.2 mi Calm Calm - N/A   Mostly Cloudy
5:00 AM 57.2 °F 55.4 °F 94% 30.18 in 6.2 mi Calm Calm - N/A   Mostly Cloudy
6:00 AM 59.0 °F 55.4 °F 88% 30.18 in 6.2 mi Calm Calm - N/A   Mostly Cloudy
7:00 AM 59.0 °F 55.4 °F 88% 30.18 in 6.2 mi ENE 9.2 mph - N/A   Mostly Cloudy
8:00 AM 59.0 °F 55.4 °F 88% 30.21 in 6.2 mi Calm Calm - N/A   Mostly Cloudy
9:00 AM 60.8 °F 55.4 °F 82% 30.21 in 6.2 mi SSW 11.5 mph - N/A   Mostly Cloudy
10:00 AM 64.4 °F 55.4 °F 73% 30.21 in 6.2 mi SE 5.8 mph - N/A   Mostly Cloudy
11:00 AM 66.2 °F 55.4 °F 68% 30.21 in 6.2 mi Calm Calm - N/A   Mostly Cloudy
12:00 PM 66.2 °F 57.2 °F 73% 30.21 in 6.2 mi ENE 6.9 mph - N/A   Mostly Cloudy
1:00 PM 53.6 °F 53.6 °F 100% 30.18 in 6.2 mi South 3.5 mph - N/A   Mostly Cloudy
2:00 PM 73.4 °F 51.8 °F 47% 30.15 in 6.2 mi ESE 6.9 mph - N/A   Mostly Cloudy
3:00 PM 77.0 °F 51.8 °F 41% 30.12 in 6.2 mi East 9.2 mph - N/A   Mostly Cloudy
4:00 PM 75.2 °F 53.6 °F 47% 30.12 in 6.2 mi ESE 9.2 mph - N/A   Mostly Cloudy
5:00 PM 75.2 °F 51.8 °F 44% 30.12 in 6.2 mi ESE 17.3 mph - N/A   Mostly Cloudy
6:00 PM 71.6 °F 51.8 °F 50% 30.12 in 6.2 mi ESE 18.4 mph - N/A   Mostly Cloudy
7:00 PM 69.8 °F 53.6 °F 56% 30.12 in 6.2 mi East 5.8 mph - N/A   Mostly Cloudy
8:00 PM 68.0 °F 51.8 °F 56% 30.15 in 6.2 mi East 5.8 mph - N/A   Mostly Cloudy
9:00 PM 66.2 °F 53.6 °F 64% 30.18 in 6.2 mi East 11.5 mph - N/A   Mostly Cloudy
10:00 PM 64.4 °F 55.4 °F 73% 30.21 in 6.2 mi Calm Calm - N/A   Mostly Cloudy
11:00 PM 62.6 °F 55.4 °F 77% 30.24 in 6.2 mi SSE 5.8 mph - N/A   Mostly Cloudy